Regional Weather Roundup
Issued by NWS

Home | Current Version | Previous Version | Graphics & Text | Print | Product List | Glossary On
Versions: 1 2 3 4 5 6 7 8 9 10 11 12 13 14 15 16 17 18 19 20 21 22 23 24 25 26 27 28 29 30 31 32 33 34 35 36 37 38 39 40 41 42 43 44 45 46 47 48 49 50
000
ASUS43 KMPX 100910
RWRMN
WEATHER ROUNDUP FOR MINNESOTA
NATIONAL WEATHER SERVICE TWIN CITIES/CHANHASSEN MN
400 AM CDT THU JUL 10 2014


NOTE: "FAIR" INDICATES FEW OR NO CLOUDS BELOW 12,000 FEET WITH NO
SIGNIFICANT WEATHER AND/OR OBSTRUCTIONS TO VISIBILITY. N/A MEANS
CURRENT SKY AND/OR WEATHER CONDITIONS ARE NOT AVAILABLE.

MNZ060>063-068>070-101000-
   Twin Cities Metro

CITY           SKY/WX    TMP DP  RH WIND       PRES   REMARKS
TWIN CITIES    PTCLDY    63  56  78 E7        30.03S
ST PAUL        CLEAR     62  59  90 CALM      30.03S
CRYSTAL        CLEAR     60  55  83 CALM      30.01S
BLAINE         PTCLDY    63  59  88 SE3       30.03S
LAKEVILLE      CLEAR     55  55 100 CALM      30.03F
EDEN PRAIRIE   CLEAR     63  56  78 SE3       30.01F
SOUTH ST PAUL  CLEAR     62  58  87 CALM      30.03S
LAKE ELMO      FAIR      59  55  88 CALM      30.05S
$$
MNZ001>005-007-008-013>017-022>024-027-028-101000-
   Northwest Minnesota

CITY           SKY/WX    TMP DP  RH WIND       PRES   REMARKS
BEMIDJI        FOG       46  44  95 CALM      30.01S VSB 1/2
HALLOCK        CLEAR     55  52  88 SE7       29.95S
ROSEAU         CLEAR     52  46  82 CALM      29.97S
WARROAD        CLEAR     54  48  82 S5        29.98S
THIEF RVR FALL CLEAR     54  48  82 CALM      29.98F
CROOKSTON      CLEAR     55  52  88 SE7       29.97F
FOSSTON        CLEAR     48  46  93 CALM      30.00S
DETROIT LAKES  CLEAR     55  55 100 S3        30.02S
MOORHEAD       CLEAR     61  57  88 SE5       29.99S
PARK RAPIDS    PTCLDY    49  48  97 W5        30.01S FOG
$$
MNZ006-009>011-018-025>026-101000-
   North Central Minnesota

CITY           SKY/WX    TMP DP  RH WIND       PRES   REMARKS
BAUDETTE       CLEAR     50  48  93 CALM      29.99F
FLAG ISLAND    CLEAR     61  54  77 CALM      29.96S
INTL FALLS     CLEAR     46  45  96 CALM      30.00S
WASKISH        CLEAR     50  48  93 SE3       30.00F
LONGVILLE      CLEAR     50  48  93 CALM      30.01S
GRAND RAPIDS   PTCLDY    50  48  93 CALM      30.03S
CRANE LAKE     CLEAR     45  43  93 CALM      30.03F
ORR            CLEAR     52  46  82 CALM      30.00F
COOK           CLEAR     48  46  93 CALM      30.03F
$$
MNZ012-019>021-037-101000-
   Northeast Minnesota

CITY           SKY/WX    TMP DP  RH WIND       PRES   REMARKS
DULUTH         PTCLDY    56  48  74 CALM      30.04F
ELY            MOCLDY    46  45  93 CALM      30.04S
HIBBING        FOG       46  44  93 CALM      30.03F VSB 3/4
EVELETH          N/A     45  43  93 CALM      30.05S FOG
DULUTH HARBOR  MOCLDY    55  52  88 NE3       30.05S
TWO HARBORS    MOCLDY    46  41  81 CALM      30.04R
SILVER BAY     CLEAR     43  43 100 CALM      30.04S
GRAND MARAIS     N/A     46  44  93 CALM      30.04S
G MARAIS ARPRT CLEAR     41  37  87 CALM      30.07S
$$
MNZ029>031-032-039>041-046>048-054>057-064-101000-
   West Central Minnesota

CITY           SKY/WX    TMP DP  RH WIND       PRES   REMARKS
FERGUS FALLS   CLEAR     61  50  67 SE5       30.00F
WHEATON        CLEAR     54  52  94 SE5       30.01F
MORRIS         CLEAR     54  52  94 SE5       30.00F
ALEXANDRIA     CLEAR     57  52  83 SE3       30.03S
ELBOW LAKE     FAIR      59  54  82 SE6       30.00F
WADENA         CLEAR     48  46  93 CALM      30.01F
GLENWOOD       CLEAR     55  54  94 SE3       30.03S
APPLETON       CLEAR     55  52  88 CALM      29.99F
BENSON         CLEAR     54  54 100 CALM      30.01F
ORTONVILLE     CLEAR     59  54  82 E3        29.99F
MADISON        CLEAR     57  55  94 CALM      30.00S
WILLMAR        FAIR      61  54  77 CALM      30.03S
$$
MNZ033>034-036-042>043-049>051-058-059-101000-
   Central Minnesota

CITY           SKY/WX    TMP DP  RH WIND       PRES   REMARKS
ST CLOUD       CLEAR     55  53  93 CALM      30.01S
SAUK CENTRE    FOG       51  51  99 CALM      30.03S VSB 1/4
PAYNESVILLE    CLEAR     48  48  99 CALM      30.03F
AITKIN         HAZE      50  45  81 CALM      30.01S VSB 1
PINE RIVER     CLEAR     50  48  93 CALM      30.05S
BRAINERD       CLEAR     57  50  77 CALM      30.02F
STAPLES        CLEAR     52  52 100 CALM      30.02S
LONG PRAIRIE   FAIR      50  50 100 CALM      30.03S
LITTLE FALLS   CLEAR     52  50  93 CALM      30.02F
LITCHFIELD     CLEAR     57  55  94 CALM      30.03S
BUFFALO        CLEAR     60  55  84 CALM      30.03S
MAPLE LAKE     CLEAR     58  57  97 CALM      30.03S
$$
MNZ037-044-045-052-053-101000-
   East Central Minnesota

CITY           SKY/WX    TMP DP  RH WIND       PRES   REMARKS
PRINCETON      PTCLDY    57  55  94 CALM      30.03R
MORA           PTCLDY    52  50  93 CALM      30.05S
CAMBRIDGE      CLEAR     59  52  77 CALM      30.02R
RUSH CITY      MOCLDY    56  54  91 CALM      30.04S
MOOSE LAKE     PTCLDY    50  48  93 CALM      30.02S FOG
HINCKLEY       PTSUNNY   52  52 100 CALM      30.04S
CLOQUET        CLEAR     54  52  94 CALM      30.04F
MCGREGOR       PTCLDY    52  50  93 CALM      30.03F
$$
MNZ071>073-080-081-089-090-097-098-101000-
   Southwest Minnesota

CITY           SKY/WX    TMP DP  RH WIND       PRES   REMARKS
MONTEVIDEO     PTCLDY    59  54  82 S3        30.01F
GRANITE FALLS  CLEAR     58  52  80 CALM      30.02F
CANBY          CLEAR     57  54  88 CALM      30.00F
MARSHALL       CLEAR     59  52  77 MISG      30.00S
REDWOOD FALLS  PTCLDY    61  54  77 CALM      30.00F
OLIVIA         PTCLDY    57  50  77 CALM      30.00F
PIPESTONE      CLEAR     63  55  77 SE6       30.00F
WINDOM         CLEAR     57  54  88 CALM      30.02S
WORTHINGTON    CLEAR     61  57  88 S6        30.02F
JACKSON        CLEAR     57  54  88 S5        30.03S
TRACY          CLEAR     64  53  68 S5        30.01S
SLAYTON        CLEAR     59  55  88 CALM      30.02S
$$
MNZ065>067-074>077-082>085-091>093-101000-
   South Central Minnesota

CITY           SKY/WX    TMP DP  RH WIND       PRES   REMARKS
MANKATO        PTCLDY    61  54  77 SE8       30.02S
NEW ULM        CLEAR     61  57  88 CALM      30.01F
ST JAMES       CLEAR     57  55  94 CALM      30.02S
FAIRMONT       CLEAR     57  50  77 S3        30.02S
GLENCOE        CLEAR     59  53  82 CALM      30.01F
FARIBAULT      PTCLDY    59  54  82 CALM      30.04S
OWATONNA       PTCLDY    61  55  82 SE5       30.04S
WASECA         PTCLDY    55  50  82 SE3       30.05S
ALBERT LEA     CLEAR     61  57  88 CALM      30.03F
$$
MNZ078>079-086>088-094>096-101000-
   Southeast Minnesota

CITY           SKY/WX    TMP DP  RH WIND       PRES   REMARKS
ROCHESTER      CLEAR     57  54  89 S6        30.06S
RED WING       PTCLDY    63  57  82 CALM      30.03F
STANTON        CLEAR     59  54  82 CALM      30.02S
DODGE CENTER   PTCLDY    57  55  94 SE3       30.04F
WINONA         PTCLDY    59  57  94 CALM      30.06S
AUSTIN         PTCLDY    59  55  88 CALM      30.04S
PRESTON        CLEAR     61  56  81 S7        30.06F
$$
ABBREVIATIONS USED IN REMARKS
   TC - TEMPERATURES IN CELSIUS
  WCI - WIND CHILL INDEX
   HX - HEAT INDEX
  VSB - VISIBILITY
$$


USA.gov is the U.S. government's official web portal to all federal, state and local government web resources and services.